Regional Weather Roundup
Issued by NWS Green Bay, WI

Home | Current Version | Previous Version | Graphics & Text | Print | Product List | Glossary Off
Versions: 1 2 3 4 5 6 7 8 9 10 11 12 13 14 15 16 17 18 19 20 21 22 23 24 25 26 27 28 29 30 31 32 33 34 35 36 37 38 39 40 41 42 43 44 45 46 47 48 49 50

000
ASUS43 KGRB 160510
RWRGRB

NORTH-CENTRAL AND NORTHEAST WISCONSIN REGIONAL WEATHER ROUNDUP
NATIONAL WEATHER SERVICE GREEN BAY WI
1200 AM CDT TUE SEP 16 2014

WIZ005-009-010>012-018-019-160600-
NORTH CENTRAL WISCONSIN

CITY           SKY/WX    TMP DP  RH WIND       PRES   REMARKS
IRONWOOD       CLEAR     37  36  93 W5        30.12F
MANITOWISH WTR CLEAR     32  32 100 CALM      30.15S
ARBOR VITAE    CLEAR     37  35  93 CALM      30.16S FOG
EAGLE RIVER    PTCLDY    33  33 100 CALM      30.15S FOG
LAND O LAKES   CLEAR     32  32 100 CALM      30.15S
RHINELANDER    CLEAR     33  32  96 W6        30.17S
PHILLIPS       CLEAR     38  36  92 W3        30.17S
ANTIGO         CLEAR     38  36  95 CALM      30.16F
TOMAHAWK       CLEAR     32  31  96 CALM      30.17F
MERRILL        PTCLDY    37  36  97 CALM      30.18S
$$

WIZ013-073-160600-
NORTHEAST WISCONSIN

CITY           SKY/WX    TMP DP  RH WIND       PRES   REMARKS
IRON MOUNTAIN  CLEAR     38  35  89 CALM      30.13S
MARINETTE      CLEAR     46  39  76 NW5       30.14R
OCONTO         CLEAR     46  41  83 CALM      30.15S
$$

WIZ017-030-035>037-045-160600-
CENTRAL WISCONSIN

CITY           SKY/WX    TMP DP  RH WIND       PRES   REMARKS
MEDFORD        CLEAR     37  36  97 CALM      30.18F
WAUSAU         CLEAR     43  39  86 NW5       30.17S
MOSINEE        CLEAR     43  39  87 CALM      30.19S
MARSHFIELD     CLEAR     42  38  85 W3        30.19S
WISC RAPIDS    CLEAR     41  39  93 CALM      30.21S
STEVENS POINT  CLEAR     37  36  96 CALM      30.19S
WAUPACA        CLEAR     47  42  81 CALM      30.19R
SHAWANO          N/A     45  42  90 CALM      30.17S
CLINTONVILLE   CLEAR     45  37  76 CALM      30.18R
$$

WIZ038-039-048-051-160600-
FOX VALLEY

CITY           SKY/WX    TMP DP  RH WIND       PRES   REMARKS
NWS GREEN BAY  CLEAR     45  43  93 NW7       30.16S
APPLETON       CLEAR     46  39  76 NW8       30.18R
OSHKOSH        PTCLDY    49  45  86 NW8       30.17R
FOND DU LAC    CLEAR     47  44  90 W6        30.17S
$$

WIZ022-050-052-160600-
EAST CENTRAL WISCONSIN

CITY           SKY/WX    TMP DP  RH WIND       PRES   REMARKS
STURGEON BAY   PTCLDY    52  43  71 N13       30.14S
MANITOWOC      CLEAR     51  48  89 NW7       30.15S
SHEBOYGAN      CLEAR     46  44  93 W6        30.15F
$$

LMZ563-521-522-541>543-160600-
LAKESHORE

STATION/POSITION TIME  TEMP    WIND        PRES    VSBY  WAVE
                       AIR SEA DIR/SP/G                  HT/PER
                 (UTC) (F)     (DEG/KT/KT) (MB)    (MI)  (FT/S)
SHEBOYGAN LKSHOR 0500   51 50  260/ 11/ 12 1021.2F
KEWAUNEE LKSHORE 0500   49                 1019.4S
NORTHPORT PIER   0500   55     360/  5/  6 1020.0F
N MID LAKE BUOY  0500   56 58   10/ 12/ 12 1019.9F         1/ 3
S GREEN BAY BUOY 0500   54     VRB 16/ 19  1021.7R
CHAMBERS ISLAND  0500   53     300/  8/ 12 1020.7S
MENOMINEE LKSHOR 0500   51                 1021.2
$$



USA.gov is the U.S. government's official web portal to all federal, state and local government web resources and services.